owner,sensor,date,latitude,longitude,vertical_datum,wind_speed,wind_to_direction,wind_speed_of_gust,qcFlag 
DISL,ioos:station:DISL:MBLA:1,2011-05-01T00:00:00Z,30.4367,-88.0117,14.2,6.15,136.7,-9999.0,'1111122,1111122,1111122' 
DISL,ioos:station:DISL:MBLA:1,2011-05-01T00:30:00Z,30.4367,-88.0117,14.2,6.63,138.6,-9999.0,'1111122,1111122,1111122' 
DISL,ioos:station:DISL:MBLA:1,2011-05-01T01:00:00Z,30.4367,-88.0117,14.2,7.89,142.0,-9999.0,'1111122,1111122,1111122' 
DISL,ioos:station:DISL:MBLA:1,2011-05-01T01:30:00Z,30.4367,-88.0117,14.2,9.69,136.8,-9999.0,'1111122,1111122,1111122' 
DISL,ioos:station:DISL:MBLA:1,2011-05-01T02:00:00Z,30.4367,-88.0117,14.2,10.26,141.4,-9999.0,'1111122,1111122,1111122' 
DISL,ioos:station:DISL:MBLA:1,2011-05-01T02:30:00Z,30.4367,-88.0117,14.2,10.35,136.7,-9999.0,'1111122,1111122,1111122' 
DISL,ioos:station:DISL:MBLA:1,2011-05-01T03:00:00Z,30.4367,-88.0117,14.2,11.7,139.2,-9999.0,'1111122,1111122,1111122' 
DISL,ioos:station:DISL:MBLA:1,2011-05-01T03:30:00Z,30.4367,-88.0117,14.2,12.22,139.8,-9999.0,'1111122,1111122,1111122' 
DISL,ioos:station:DISL:MBLA:1,2011-05-01T04:00:00Z,30.4367,-88.0117,14.2,12.67,142.9,-9999.0,'1111122,1111122,1111122' 
DISL,ioos:station:DISL:MBLA:1,2011-05-01T04:30:00Z,30.4367,-88.0117,14.2,12.22,145.5,-9999.0,'1111122,1111122,1111122' 
DISL,ioos:station:DISL:MBLA:1,2011-05-01T05:00:00Z,30.4367,-88.0117,14.2,11.49,151.4,-9999.0,'1111122,1111122,1111122' 
DISL,ioos:station:DISL:MBLA:1,2011-05-01T05:30:00Z,30.4367,-88.0117,14.2,11.24,153.1,-9999.0,'1111122,1111122,1111122' 
DISL,ioos:station:DISL:MBLA:1,2011-05-01T06:00:00Z,30.4367,-88.0117,14.2,9.42,159.5,-9999.0,'1111122,1111122,1111122' 
DISL,ioos:station:DISL:MBLA:1,2011-05-01T06:30:00Z,30.4367,-88.0117,14.2,8.67,163.7,-9999.0,'1111122,1111122,1111122' 
DISL,ioos:station:DISL:MBLA:1,2011-05-01T07:00:00Z,30.4367,-88.0117,14.2,8.14,168.8,-9999.0,'1111122,1111122,1111122' 
DISL,ioos:station:DISL:MBLA:1,2011-05-01T07:30:00Z,30.4367,-88.0117,14.2,8.3,165.8,-9999.0,'1111122,1111122,1111122' 
DISL,ioos:station:DISL:MBLA:1,2011-05-01T08:00:00Z,30.4367,-88.0117,14.2,9.15,156.1,-9999.0,'1111122,1111122,1111122' 
DISL,ioos:station:DISL:MBLA:1,2011-05-01T08:30:00Z,30.4367,-88.0117,14.2,8.17,160.8,-9999.0,'1111122,1111122,1111122' 
DISL,ioos:station:DISL:MBLA:1,2011-05-01T09:00:00Z,30.4367,-88.0117,14.2,8.62,154.6,-9999.0,'1111122,1111122,1111122' 
DISL,ioos:station:DISL:MBLA:1,2011-05-01T09:30:00Z,30.4367,-88.0117,14.2,9.11,160.2,-9999.0,'1111122,1111122,1111122' 
DISL,ioos:station:DISL:MBLA:1,2011-05-01T10:00:00Z,30.4367,-88.0117,14.2,9.17,154.5,-9999.0,'1111122,1111122,1111122' 
DISL,ioos:station:DISL:MBLA:1,2011-05-01T10:30:00Z,30.4367,-88.0117,14.2,8.51,154.0,-9999.0,'1111122,1111122,1111122' 
DISL,ioos:station:DISL:MBLA:1,2011-05-01T11:00:00Z,30.4367,-88.0117,14.2,8.01,153.2,-9999.0,'1111122,1111122,1111122' 
DISL,ioos:station:DISL:MBLA:1,2011-05-01T11:30:00Z,30.4367,-88.0117,14.2,8.76,155.0,-9999.0,'1111122,1111122,1111122' 
DISL,ioos:station:DISL:MBLA:1,2011-05-01T12:00:00Z,30.4367,-88.0117,14.2,8.66,153.3,-9999.0,'1111122,1111122,1111122' 
DISL,ioos:station:DISL:MBLA:1,2011-05-01T12:30:00Z,30.4367,-88.0117,14.2,7.52,155.2,-9999.0,'1111122,1111122,1111122' 
DISL,ioos:station:DISL:MBLA:1,2011-05-01T13:00:00Z,30.4367,-88.0117,14.2,8.79,156.4,-9999.0,'1111122,1111122,1111122' 
DISL,ioos:station:DISL:MBLA:1,2011-05-01T13:30:00Z,30.4367,-88.0117,14.2,8.06,159.8,-9999.0,'1111122,1111122,1111122' 
DISL,ioos:station:DISL:MBLA:1,2011-05-01T14:00:00Z,30.4367,-88.0117,14.2,7.07,156.2,-9999.0,'1111122,1111122,1111122' 
DISL,ioos:station:DISL:MBLA:1,2011-05-01T14:30:00Z,30.4367,-88.0117,14.2,5.71,158.5,-9999.0,'1111122,1111122,1111122' 
DISL,ioos:station:DISL:MBLA:1,2011-05-01T15:00:00Z,30.4367,-88.0117,14.2,6.14,149.6,-9999.0,'1111122,1111122,1111122' 
DISL,ioos:station:DISL:MBLA:1,2011-05-01T15:30:00Z,30.4367,-88.0117,14.2,5.3,150.6,-9999.0,'1111122,1111122,1111122' 
DISL,ioos:station:DISL:MBLA:1,2011-05-01T16:00:00Z,30.4367,-88.0117,14.2,5.89,142.4,-9999.0,'1111122,1111122,1111122' 
DISL,ioos:station:DISL:MBLA:1,2011-05-01T16:30:00Z,30.4367,-88.0117,14.2,5.44,137.9,-9999.0,'1111122,1111122,1111122' 
DISL,ioos:station:DISL:MBLA:1,2011-05-01T17:00:00Z,30.4367,-88.0117,14.2,5.36,130.1,-9999.0,'1111122,1111122,1111122' 
DISL,ioos:station:DISL:MBLA:1,2011-05-01T17:30:00Z,30.4367,-88.0117,14.2,5.76,129.7,-9999.0,'1111122,1111122,1111122' 
DISL,ioos:station:DISL:MBLA:1,2011-05-01T18:00:00Z,30.4367,-88.0117,14.2,6.3,125.5,-9999.0,'1111122,1111122,1111122' 
DISL,ioos:station:DISL:MBLA:1,2011-05-01T18:30:00Z,30.4367,-88.0117,14.2,6.86,135.8,-9999.0,'1111122,1111122,1111122' 
DISL,ioos:station:DISL:MBLA:1,2011-05-01T19:00:00Z,30.4367,-88.0117,14.2,5.55,132.9,-9999.0,'1111122,1111122,1111122' 
DISL,ioos:station:DISL:MBLA:1,2011-05-01T19:30:00Z,30.4367,-88.0117,14.2,6.25,133.8,-9999.0,'1111122,1111122,1111122' 
DISL,ioos:station:DISL:MBLA:1,2011-05-01T20:00:00Z,30.4367,-88.0117,14.2,5.85,135.7,-9999.0,'1111122,1111122,1111122' 
DISL,ioos:station:DISL:MBLA:1,2011-05-01T20:30:00Z,30.4367,-88.0117,14.2,6.76,133.9,-9999.0,'1111122,1111122,1111122' 
DISL,ioos:station:DISL:MBLA:1,2011-05-01T21:00:00Z,30.4367,-88.0117,14.2,7.89,133.5,-9999.0,'1111122,1111122,1111122' 
DISL,ioos:station:DISL:MBLA:1,2011-05-01T21:30:00Z,30.4367,-88.0117,14.2,8.39,127.7,-9999.0,'1111122,1111122,1111122' 
DISL,ioos:station:DISL:MBLA:1,2011-05-01T22:00:00Z,30.4367,-88.0117,14.2,8.77,130.7,-9999.0,'1111122,1111122,1111122' 
DISL,ioos:station:DISL:MBLA:1,2011-05-01T22:30:00Z,30.4367,-88.0117,14.2,9.24,132.0,-9999.0,'1111122,1111122,1111122' 
DISL,ioos:station:DISL:MBLA:1,2011-05-01T23:00:00Z,30.4367,-88.0117,14.2,10.38,127.8,-9999.0,'1111122,1111122,1111122' 
DISL,ioos:station:DISL:MBLA:1,2011-05-01T23:30:00Z,30.4367,-88.0117,14.2,10.64,124.9,-9999.0,'1111122,1111122,1111122' 
DISL,ioos:station:DISL:MBLA:1,2011-05-02T00:00:00Z,30.4367,-88.0117,14.2,10.17,123.6,-9999.0,'1111122,1111122,1111122' 
DISL,ioos:station:DISL:MBLA:1,2011-05-02T00:30:00Z,30.4367,-88.0117,14.2,9.12,127.0,-9999.0,'1111122,1111122,1111122' 
DISL,ioos:station:DISL:MBLA:1,2011-05-02T01:00:00Z,30.4367,-88.0117,14.2,9.42,126.1,-9999.0,'1111122,1111122,1111122' 
DISL,ioos:station:DISL:MBLA:1,2011-05-02T01:30:00Z,30.4367,-88.0117,14.2,9.45,129.1,-9999.0,'1111122,1111122,1111122' 
DISL,ioos:station:DISL:MBLA:1,2011-05-02T02:00:00Z,30.4367,-88.0117,14.2,10.22,126.2,-9999.0,'1111122,1111122,1111122' 
DISL,ioos:station:DISL:MBLA:1,2011-05-02T02:30:00Z,30.4367,-88.0117,14.2,10.12,129.6,-9999.0,'1111122,1111122,1111122' 
DISL,ioos:station:DISL:MBLA:1,2011-05-02T03:00:00Z,30.4367,-88.0117,14.2,11.42,127.5,-9999.0,'1111122,1111122,1111122' 
DISL,ioos:station:DISL:MBLA:1,2011-05-02T03:30:00Z,30.4367,-88.0117,14.2,11.91,137.0,-9999.0,'1111122,1111122,1111122' 
DISL,ioos:station:DISL:MBLA:1,2011-05-02T04:00:00Z,30.4367,-88.0117,14.2,11.91,139.6,-9999.0,'1111122,1111122,1111122' 
DISL,ioos:station:DISL:MBLA:1,2011-05-02T04:30:00Z,30.4367,-88.0117,14.2,12.28,143.7,-9999.0,'1111122,1111122,1111122' 
DISL,ioos:station:DISL:MBLA:1,2011-05-02T05:00:00Z,30.4367,-88.0117,14.2,11.79,140.9,-9999.0,'1111122,1111122,1111122' 
DISL,ioos:station:DISL:MBLA:1,2011-05-02T05:30:00Z,30.4367,-88.0117,14.2,10.91,144.1,-9999.0,'1111122,1111122,1111122' 
DISL,ioos:station:DISL:MBLA:1,2011-05-02T06:00:00Z,30.4367,-88.0117,14.2,10.54,148.4,-9999.0,'1111122,1111122,1111122' 
DISL,ioos:station:DISL:MBLA:1,2011-05-02T06:30:00Z,30.4367,-88.0117,14.2,9.97,151.8,-9999.0,'1111122,1111122,1111122' 
DISL,ioos:station:DISL:MBLA:1,2011-05-02T07:00:00Z,30.4367,-88.0117,14.2,10.5,156.5,-9999.0,'1111122,1111122,1111122' 
DISL,ioos:station:DISL:MBLA:1,2011-05-02T07:30:00Z,30.4367,-88.0117,14.2,9.61,157.3,-9999.0,'1111122,1111122,1111122' 
DISL,ioos:station:DISL:MBLA:1,2011-05-02T08:00:00Z,30.4367,-88.0117,14.2,8.79,162.0,-9999.0,'1111122,1111122,1111122' 
DISL,ioos:station:DISL:MBLA:1,2011-05-02T08:30:00Z,30.4367,-88.0117,14.2,7.86,162.2,-9999.0,'1111122,1111122,1111122' 
DISL,ioos:station:DISL:MBLA:1,2011-05-02T09:00:00Z,30.4367,-88.0117,14.2,7.51,161.5,-9999.0,'1111122,1111122,1111122' 
DISL,ioos:station:DISL:MBLA:1,2011-05-02T09:30:00Z,30.4367,-88.0117,14.2,6.21,160.5,-9999.0,'1111122,1111122,1111122' 
DISL,ioos:station:DISL:MBLA:1,2011-05-02T10:00:00Z,30.4367,-88.0117,14.2,5.86,160.1,-9999.0,'1111122,1111122,1111122' 
DISL,ioos:station:DISL:MBLA:1,2011-05-02T10:30:00Z,30.4367,-88.0117,14.2,5.45,158.0,-9999.0,'1111122,1111122,1111122' 
DISL,ioos:station:DISL:MBLA:1,2011-05-02T11:00:00Z,30.4367,-88.0117,14.2,5.22,148.9,-9999.0,'1111122,1111122,1111122' 
DISL,ioos:station:DISL:MBLA:1,2011-05-02T11:30:00Z,30.4367,-88.0117,14.2,4.88,144.4,-9999.0,'1111122,1111122,1111122' 
DISL,ioos:station:DISL:MBLA:1,2011-05-02T12:00:00Z,30.4367,-88.0117,14.2,4.41,138.7,-9999.0,'1111122,1111122,1111122' 
DISL,ioos:station:DISL:MBLA:1,2011-05-02T12:30:00Z,30.4367,-88.0117,14.2,3.34,127.6,-9999.0,'1111122,1111122,1111122' 
DISL,ioos:station:DISL:MBLA:1,2011-05-02T13:00:00Z,30.4367,-88.0117,14.2,2.69,110.9,-9999.0,'1111122,1111122,1111122' 
DISL,ioos:station:DISL:MBLA:1,2011-05-02T13:30:00Z,30.4367,-88.0117,14.2,4.38,66.04,-9999.0,'1111122,1111122,1111122' 
DISL,ioos:station:DISL:MBLA:1,2011-05-02T14:00:00Z,30.4367,-88.0117,14.2,2.47,80.3,-9999.0,'1111122,1111122,1111122' 
DISL,ioos:station:DISL:MBLA:1,2011-05-02T14:30:00Z,30.4367,-88.0117,14.2,2.92,117.3,-9999.0,'1111122,1111122,1111122' 
DISL,ioos:station:DISL:MBLA:1,2011-05-02T15:00:00Z,30.4367,-88.0117,14.2,7.14,129.9,-9999.0,'1111122,1111122,1111122' 
DISL,ioos:station:DISL:MBLA:1,2011-05-02T15:30:00Z,30.4367,-88.0117,14.2,6.17,136.7,-9999.0,'1111122,1111122,1111122' 
DISL,ioos:station:DISL:MBLA:1,2011-05-02T16:00:00Z,30.4367,-88.0117,14.2,6.63,135.4,-9999.0,'1111122,1111122,1111122' 
DISL,ioos:station:DISL:MBLA:1,2011-05-02T16:30:00Z,30.4367,-88.0117,14.2,7.4,135.3,-9999.0,'1111122,1111122,1111122' 
DISL,ioos:station:DISL:MBLA:1,2011-05-02T17:00:00Z,30.4367,-88.0117,14.2,7.09,137.9,-9999.0,'1111122,1111122,1111122' 
DISL,ioos:station:DISL:MBLA:1,2011-05-02T17:30:00Z,30.4367,-88.0117,14.2,7.35,138.7,-9999.0,'1111122,1111122,1111122' 
DISL,ioos:station:DISL:MBLA:1,2011-05-02T18:00:00Z,30.4367,-88.0117,14.2,6.7,147.5,-9999.0,'1111122,1111122,1111122' 
DISL,ioos:station:DISL:MBLA:1,2011-05-02T18:30:00Z,30.4367,-88.0117,14.2,7.01,149.2,-9999.0,'1111122,1111122,1111122' 
DISL,ioos:station:DISL:MBLA:1,2011-05-02T19:00:00Z,30.4367,-88.0117,14.2,7.41,146.2,-9999.0,'1111122,1111122,1111122' 
DISL,ioos:station:DISL:MBLA:1,2011-05-02T19:30:00Z,30.4367,-88.0117,14.2,7.36,144.0,-9999.0,'1111122,1111122,1111122' 
DISL,ioos:station:DISL:MBLA:1,2011-05-02T20:00:00Z,30.4367,-88.0117,14.2,7.52,145.0,-9999.0,'1111122,1111122,1111122' 
DISL,ioos:station:DISL:MBLA:1,2011-05-02T20:30:00Z,30.4367,-88.0117,14.2,7.0,147.3,-9999.0,'1111122,1111122,1111122' 
DISL,ioos:station:DISL:MBLA:1,2011-05-02T21:00:00Z,30.4367,-88.0117,14.2,7.32,143.5,-9999.0,'1111122,1111122,1111122' 
DISL,ioos:station:DISL:MBLA:1,2011-05-02T21:30:00Z,30.4367,-88.0117,14.2,6.86,149.1,-9999.0,'1111122,1111122,1111122' 
DISL,ioos:station:DISL:MBLA:1,2011-05-02T22:00:00Z,30.4367,-88.0117,14.2,6.67,138.6,-9999.0,'1111122,1111122,1111122' 
DISL,ioos:station:DISL:MBLA:1,2011-05-02T22:30:00Z,30.4367,-88.0117,14.2,6.89,138.7,-9999.0,'1111122,1111122,1111122' 
DISL,ioos:station:DISL:MBLA:1,2011-05-02T23:00:00Z,30.4367,-88.0117,14.2,7.0,134.1,-9999.0,'1111122,1111122,1111122' 
DISL,ioos:station:DISL:MBLA:1,2011-05-02T23:30:00Z,30.4367,-88.0117,14.2,7.64,130.9,-9999.0,'1111122,1111122,1111122' 
DISL,ioos:station:DISL:MBLA:1,2011-05-03T00:00:00Z,30.4367,-88.0117,14.2,7.89,134.8,-9999.0,'1111122,1111122,1111122' 
DISL,ioos:station:DISL:MBLA:1,2011-05-03T00:30:00Z,30.4367,-88.0117,14.2,8.16,133.7,-9999.0,'1111122,1111122,1111122' 
DISL,ioos:station:DISL:MBLA:1,2011-05-03T01:00:00Z,30.4367,-88.0117,14.2,8.02,130.7,-9999.0,'1111122,1111122,1111122' 
DISL,ioos:station:DISL:MBLA:1,2011-05-03T01:30:00Z,30.4367,-88.0117,14.2,7.39,133.9,-9999.0,'1111122,1111122,1111122' 
DISL,ioos:station:DISL:MBLA:1,2011-05-03T02:00:00Z,30.4367,-88.0117,14.2,7.67,135.0,-9999.0,'1111122,1111122,1111122' 
DISL,ioos:station:DISL:MBLA:1,2011-05-03T02:30:00Z,30.4367,-88.0117,14.2,8.15,138.9,-9999.0,'1111122,1111122,1111122' 
DISL,ioos:station:DISL:MBLA:1,2011-05-03T03:00:00Z,30.4367,-88.0117,14.2,8.14,138.9,-9999.0,'1111122,1111122,1111122' 
DISL,ioos:station:DISL:MBLA:1,2011-05-03T03:30:00Z,30.4367,-88.0117,14.2,9.25,140.2,-9999.0,'1111122,1111122,1111122' 
DISL,ioos:station:DISL:MBLA:1,2011-05-03T04:00:00Z,30.4367,-88.0117,14.2,8.22,145.7,-9999.0,'1111122,1111122,1111122' 
DISL,ioos:station:DISL:MBLA:1,2011-05-03T04:30:00Z,30.4367,-88.0117,14.2,7.55,146.3,-9999.0,'1111122,1111122,1111122' 
DISL,ioos:station:DISL:MBLA:1,2011-05-03T05:00:00Z,30.4367,-88.0117,14.2,7.33,155.9,-9999.0,'1111122,1111122,1111122' 
DISL,ioos:station:DISL:MBLA:1,2011-05-03T05:30:00Z,30.4367,-88.0117,14.2,7.64,158.4,-9999.0,'1111122,1111122,1111122' 
DISL,ioos:station:DISL:MBLA:1,2011-05-03T06:00:00Z,30.4367,-88.0117,14.2,7.91,158.8,-9999.0,'1111122,1111122,1111122' 
DISL,ioos:station:DISL:MBLA:1,2011-05-03T06:30:00Z,30.4367,-88.0117,14.2,7.18,160.3,-9999.0,'1111122,1111122,1111122' 
DISL,ioos:station:DISL:MBLA:1,2011-05-03T07:00:00Z,30.4367,-88.0117,14.2,7.62,157.6,-9999.0,'1111122,1111122,1111122' 
DISL,ioos:station:DISL:MBLA:1,2011-05-03T07:30:00Z,30.4367,-88.0117,14.2,8.11,164.6,-9999.0,'1111122,1111122,1111122' 
DISL,ioos:station:DISL:MBLA:1,2011-05-03T08:00:00Z,30.4367,-88.0117,14.2,7.93,167.4,-9999.0,'1111122,1111122,1111122' 
DISL,ioos:station:DISL:MBLA:1,2011-05-03T08:30:00Z,30.4367,-88.0117,14.2,7.3,174.4,-9999.0,'1111122,1111122,1111122' 
DISL,ioos:station:DISL:MBLA:1,2011-05-03T09:00:00Z,30.4367,-88.0117,14.2,6.55,171.1,-9999.0,'1111122,1111122,1111122' 
DISL,ioos:station:DISL:MBLA:1,2011-05-03T09:30:00Z,30.4367,-88.0117,14.2,7.47,173.1,-9999.0,'1111122,1111122,1111122' 
DISL,ioos:station:DISL:MBLA:1,2011-05-03T10:00:00Z,30.4367,-88.0117,14.2,7.26,174.7,-9999.0,'1111122,1111122,1111122' 
DISL,ioos:station:DISL:MBLA:1,2011-05-03T10:30:00Z,30.4367,-88.0117,14.2,7.79,182.9,-9999.0,'1111122,1111122,1111122' 
DISL,ioos:station:DISL:MBLA:1,2011-05-03T11:00:00Z,30.4367,-88.0117,14.2,7.14,186.2,-9999.0,'1111122,1111122,1111122' 
DISL,ioos:station:DISL:MBLA:1,2011-05-03T11:30:00Z,30.4367,-88.0117,14.2,7.17,199.9,-9999.0,'1111122,1111122,1111122' 
DISL,ioos:station:DISL:MBLA:1,2011-05-03T12:00:00Z,30.4367,-88.0117,14.2,7.21,194.1,-9999.0,'1111122,1111122,1111122' 
DISL,ioos:station:DISL:MBLA:1,2011-05-03T12:30:00Z,30.4367,-88.0117,14.2,6.66,180.0,-9999.0,'1111122,1111122,1111122' 
DISL,ioos:station:DISL:MBLA:1,2011-05-03T13:00:00Z,30.4367,-88.0117,14.2,7.25,174.9,-9999.0,'1111122,1111122,1111122' 
DISL,ioos:station:DISL:MBLA:1,2011-05-03T13:30:00Z,30.4367,-88.0117,14.2,7.4,181.2,-9999.0,'1111122,1111122,1111122' 
DISL,ioos:station:DISL:MBLA:1,2011-05-03T14:00:00Z,30.4367,-88.0117,14.2,7.34,185.1,-9999.0,'1111122,1111122,1111122' 
DISL,ioos:station:DISL:MBLA:1,2011-05-03T14:30:00Z,30.4367,-88.0117,14.2,7.45,188.7,-9999.0,'1111122,1111122,1111122' 
DISL,ioos:station:DISL:MBLA:1,2011-05-03T15:00:00Z,30.4367,-88.0117,14.2,7.42,183.1,-9999.0,'1111122,1111122,1111122' 
DISL,ioos:station:DISL:MBLA:1,2011-05-03T15:30:00Z,30.4367,-88.0117,14.2,8.09,183.3,-9999.0,'1111122,1111122,1111122' 
DISL,ioos:station:DISL:MBLA:1,2011-05-03T16:00:00Z,30.4367,-88.0117,14.2,8.18,180.1,-9999.0,'1111122,1111122,1111122' 
DISL,ioos:station:DISL:MBLA:1,2011-05-03T16:30:00Z,30.4367,-88.0117,14.2,9.16,182.8,-9999.0,'1111122,1111122,1111122' 
DISL,ioos:station:DISL:MBLA:1,2011-05-03T17:00:00Z,30.4367,-88.0117,14.2,9.67,185.1,-9999.0,'1111122,1111122,1111122' 
DISL,ioos:station:DISL:MBLA:1,2011-05-03T17:30:00Z,30.4367,-88.0117,14.2,10.13,179.9,-9999.0,'1111122,1111122,1111122' 
DISL,ioos:station:DISL:MBLA:1,2011-05-03T18:00:00Z,30.4367,-88.0117,14.2,9.63,182.1,-9999.0,'1111122,1111122,1111122' 
DISL,ioos:station:DISL:MBLA:1,2011-05-03T18:30:00Z,30.4367,-88.0117,14.2,5.72,301.6,-9999.0,'1111122,1111122,1111122' 
DISL,ioos:station:DISL:MBLA:1,2011-05-03T19:00:00Z,30.4367,-88.0117,14.2,10.16,323.1,-9999.0,'1111122,1111122,1111122' 
DISL,ioos:station:DISL:MBLA:1,2011-05-03T19:30:00Z,30.4367,-88.0117,14.2,11.28,342.5,-9999.0,'1111122,1111122,1111122' 
DISL,ioos:station:DISL:MBLA:1,2011-05-03T20:00:00Z,30.4367,-88.0117,14.2,11.82,349.7,-9999.0,'1111122,1111122,1111122' 
DISL,ioos:station:DISL:MBLA:1,2011-05-03T20:30:00Z,30.4367,-88.0117,14.2,10.84,348.1,-9999.0,'1111122,1111122,1111122' 
DISL,ioos:station:DISL:MBLA:1,2011-05-03T21:00:00Z,30.4367,-88.0117,14.2,11.58,354.6,-9999.0,'1111122,1111122,1111122' 
DISL,ioos:station:DISL:MBLA:1,2011-05-03T21:30:00Z,30.4367,-88.0117,14.2,12.28,353.8,-9999.0,'1111122,1111122,1111122' 
DISL,ioos:station:DISL:MBLA:1,2011-05-03T22:00:00Z,30.4367,-88.0117,14.2,12.14,350.4,-9999.0,'1111122,1111122,1111122' 
DISL,ioos:station:DISL:MBLA:1,2011-05-03T22:30:00Z,30.4367,-88.0117,14.2,13.72,348.0,-9999.0,'1111122,1111122,1111122' 
DISL,ioos:station:DISL:MBLA:1,2011-05-03T23:00:00Z,30.4367,-88.0117,14.2,14.61,351.0,-9999.0,'1111122,1111122,1111122' 
DISL,ioos:station:DISL:MBLA:1,2011-05-03T23:30:00Z,30.4367,-88.0117,14.2,14.66,350.4,-9999.0,'1111122,1111122,1111122' 
DISL,ioos:station:DISL:MBLA:1,2011-05-04T00:00:00Z,30.4367,-88.0117,14.2,15.06,349.0,-9999.0,'1111122,1111122,1111122' 
DISL,ioos:station:DISL:MBLA:1,2011-05-04T00:30:00Z,30.4367,-88.0117,14.2,14.83,351.9,-9999.0,'1111122,1111122,1111122' 
DISL,ioos:station:DISL:MBLA:1,2011-05-04T01:00:00Z,30.4367,-88.0117,14.2,15.16,353.8,-9999.0,'1111122,1111122,1111122' 
DISL,ioos:station:DISL:MBLA:1,2011-05-04T01:30:00Z,30.4367,-88.0117,14.2,14.51,3.089,-9999.0,'1111122,1111122,1111122' 
DISL,ioos:station:DISL:MBLA:1,2011-05-04T02:00:00Z,30.4367,-88.0117,14.2,13.76,358.6,-9999.0,'1111122,1111122,1111122' 
DISL,ioos:station:DISL:MBLA:1,2011-05-04T02:30:00Z,30.4367,-88.0117,14.2,13.3,359.9,-9999.0,'1111122,1111122,1111122' 
DISL,ioos:station:DISL:MBLA:1,2011-05-04T03:00:00Z,30.4367,-88.0117,14.2,12.95,354.5,-9999.0,'1111122,1111122,1111122' 
DISL,ioos:station:DISL:MBLA:1,2011-05-04T03:30:00Z,30.4367,-88.0117,14.2,13.64,353.4,-9999.0,'1111122,1111122,1111122' 
DISL,ioos:station:DISL:MBLA:1,2011-05-04T04:00:00Z,30.4367,-88.0117,14.2,14.05,358.9,-9999.0,'1111122,1111122,1111122' 
DISL,ioos:station:DISL:MBLA:1,2011-05-04T04:30:00Z,30.4367,-88.0117,14.2,14.08,1.846,-9999.0,'1111122,1111122,1111122' 
DISL,ioos:station:DISL:MBLA:1,2011-05-04T05:00:00Z,30.4367,-88.0117,14.2,16.07,10.51,-9999.0,'1111122,1111122,1111122' 
DISL,ioos:station:DISL:MBLA:1,2011-05-04T05:30:00Z,30.4367,-88.0117,14.2,15.69,13.06,-9999.0,'1111122,1111122,1111122' 
DISL,ioos:station:DISL:MBLA:1,2011-05-04T06:00:00Z,30.4367,-88.0117,14.2,15.01,13.93,-9999.0,'1111122,1111122,1111122' 
DISL,ioos:station:DISL:MBLA:1,2011-05-04T06:30:00Z,30.4367,-88.0117,14.2,13.93,11.2,-9999.0,'1111122,1111122,1111122' 
DISL,ioos:station:DISL:MBLA:1,2011-05-04T07:00:00Z,30.4367,-88.0117,14.2,14.09,17.65,-9999.0,'1111122,1111122,1111122' 
DISL,ioos:station:DISL:MBLA:1,2011-05-04T07:30:00Z,30.4367,-88.0117,14.2,13.87,12.2,-9999.0,'1111122,1111122,1111122' 
DISL,ioos:station:DISL:MBLA:1,2011-05-04T08:00:00Z,30.4367,-88.0117,14.2,13.95,17.07,-9999.0,'1111122,1111122,1111122' 
DISL,ioos:station:DISL:MBLA:1,2011-05-04T08:30:00Z,30.4367,-88.0117,14.2,13.29,15.82,-9999.0,'1111122,1111122,1111122' 
DISL,ioos:station:DISL:MBLA:1,2011-05-04T09:00:00Z,30.4367,-88.0117,14.2,13.28,13.62,-9999.0,'1111122,1111122,1111122' 
DISL,ioos:station:DISL:MBLA:1,2011-05-04T09:30:00Z,30.4367,-88.0117,14.2,12.15,19.56,-9999.0,'1111122,1111122,1111122' 
DISL,ioos:station:DISL:MBLA:1,2011-05-04T10:00:00Z,30.4367,-88.0117,14.2,12.86,12.98,-9999.0,'1111122,1111122,1111122' 
DISL,ioos:station:DISL:MBLA:1,2011-05-04T10:30:00Z,30.4367,-88.0117,14.2,12.87,12.9,-9999.0,'1111122,1111122,1111122' 
DISL,ioos:station:DISL:MBLA:1,2011-05-04T11:00:00Z,30.4367,-88.0117,14.2,12.93,18.9,-9999.0,'1111122,1111122,1111122' 
DISL,ioos:station:DISL:MBLA:1,2011-05-04T11:30:00Z,30.4367,-88.0117,14.2,11.8,16.51,-9999.0,'1111122,1111122,1111122' 
DISL,ioos:station:DISL:MBLA:1,2011-05-04T12:00:00Z,30.4367,-88.0117,14.2,11.08,18.37,-9999.0,'1111122,1111122,1111122' 
DISL,ioos:station:DISL:MBLA:1,2011-05-04T12:30:00Z,30.4367,-88.0117,14.2,10.31,14.9,-9999.0,'1111122,1111122,1111122' 
DISL,ioos:station:DISL:MBLA:1,2011-05-04T13:00:00Z,30.4367,-88.0117,14.2,10.34,17.12,-9999.0,'1111122,1111122,1111122' 
DISL,ioos:station:DISL:MBLA:1,2011-05-04T13:30:00Z,30.4367,-88.0117,14.2,10.11,15.03,-9999.0,'1111122,1111122,1111122' 
DISL,ioos:station:DISL:MBLA:1,2011-05-04T14:00:00Z,30.4367,-88.0117,14.2,9.81,12.5,-9999.0,'1111122,1111122,1111122' 
DISL,ioos:station:DISL:MBLA:1,2011-05-04T14:30:00Z,30.4367,-88.0117,14.2,9.58,11.45,-9999.0,'1111122,1111122,1111122' 
DISL,ioos:station:DISL:MBLA:1,2011-05-04T15:00:00Z,30.4367,-88.0117,14.2,9.11,7.68,-9999.0,'1111122,1111122,1111122' 
DISL,ioos:station:DISL:MBLA:1,2011-05-04T15:30:00Z,30.4367,-88.0117,14.2,11.61,28.81,-9999.0,'1111122,1111122,1111122' 
DISL,ioos:station:DISL:MBLA:1,2011-05-04T16:00:00Z,30.4367,-88.0117,14.2,12.02,23.98,-9999.0,'1111122,1111122,1111122' 
DISL,ioos:station:DISL:MBLA:1,2011-05-04T16:30:00Z,30.4367,-88.0117,14.2,10.69,24.64,-9999.0,'1111122,1111122,1111122' 
DISL,ioos:station:DISL:MBLA:1,2011-05-04T17:00:00Z,30.4367,-88.0117,14.2,10.94,15.47,-9999.0,'1111122,1111122,1111122' 
DISL,ioos:station:DISL:MBLA:1,2011-05-04T17:30:00Z,30.4367,-88.0117,14.2,10.75,12.97,-9999.0,'1111122,1111122,1111122' 
DISL,ioos:station:DISL:MBLA:1,2011-05-04T18:00:00Z,30.4367,-88.0117,14.2,10.06,2.135,-9999.0,'1111122,1111122,1111122' 
DISL,ioos:station:DISL:MBLA:1,2011-05-04T18:30:00Z,30.4367,-88.0117,14.2,9.81,356.5,-9999.0,'1111122,1111122,1111122' 
DISL,ioos:station:DISL:MBLA:1,2011-05-04T19:00:00Z,30.4367,-88.0117,14.2,11.06,355.8,-9999.0,'1111122,1111122,1111122' 
DISL,ioos:station:DISL:MBLA:1,2011-05-04T19:30:00Z,30.4367,-88.0117,14.2,10.1,353.5,-9999.0,'1111122,1111122,1111122' 
DISL,ioos:station:DISL:MBLA:1,2011-05-04T20:00:00Z,30.4367,-88.0117,14.2,9.85,349.5,-9999.0,'1111122,1111122,1111122' 
DISL,ioos:station:DISL:MBLA:1,2011-05-04T20:30:00Z,30.4367,-88.0117,14.2,9.38,350.3,-9999.0,'1111122,1111122,1111122' 
DISL,ioos:station:DISL:MBLA:1,2011-05-04T21:00:00Z,30.4367,-88.0117,14.2,9.35,350.0,-9999.0,'1111122,1111122,1111122' 
DISL,ioos:station:DISL:MBLA:1,2011-05-04T21:30:00Z,30.4367,-88.0117,14.2,9.83,352.0,-9999.0,'1111122,1111122,1111122' 
DISL,ioos:station:DISL:MBLA:1,2011-05-04T22:00:00Z,30.4367,-88.0117,14.2,8.86,350.9,-9999.0,'1111122,1111122,1111122' 
DISL,ioos:station:DISL:MBLA:1,2011-05-04T22:30:00Z,30.4367,-88.0117,14.2,10.57,353.1,-9999.0,'1111122,1111122,1111122' 
DISL,ioos:station:DISL:MBLA:1,2011-05-04T23:00:00Z,30.4367,-88.0117,14.2,10.24,357.2,-9999.0,'1111122,1111122,1111122' 
DISL,ioos:station:DISL:MBLA:1,2011-05-04T23:30:00Z,30.4367,-88.0117,14.2,10.11,358.7,-9999.0,'1111122,1111122,1111122' 
DISL,ioos:station:DISL:MBLA:1,2011-05-05T00:00:00Z,30.4367,-88.0117,14.2,10.83,360.0,-9999.0,'1111122,1111122,1111122' 
DISL,ioos:station:DISL:MBLA:1,2011-05-05T00:30:00Z,30.4367,-88.0117,14.2,10.49,2.751,-9999.0,'1111122,1111122,1111122' 
DISL,ioos:station:DISL:MBLA:1,2011-05-05T01:00:00Z,30.4367,-88.0117,14.2,10.57,4.553,-9999.0,'1111122,1111122,1111122' 
DISL,ioos:station:DISL:MBLA:1,2011-05-05T01:30:00Z,30.4367,-88.0117,14.2,9.39,11.08,-9999.0,'1111122,1111122,1111122' 
DISL,ioos:station:DISL:MBLA:1,2011-05-05T02:00:00Z,30.4367,-88.0117,14.2,8.36,12.7,-9999.0,'1111122,1111122,1111122' 
DISL,ioos:station:DISL:MBLA:1,2011-05-05T02:30:00Z,30.4367,-88.0117,14.2,8.59,17.94,-9999.0,'1111122,1111122,1111122' 
DISL,ioos:station:DISL:MBLA:1,2011-05-05T03:00:00Z,30.4367,-88.0117,14.2,9.18,17.11,-9999.0,'1111122,1111122,1111122' 
DISL,ioos:station:DISL:MBLA:1,2011-05-05T03:30:00Z,30.4367,-88.0117,14.2,8.43,29.89,-9999.0,'1111122,1111122,1111122' 